{"data":{"norad_id":59325,"intl_designator":"2024-057F","name":"STARLINK-31611","alt_names":[],"object_type":"PAYLOAD","status":"ACTIVE","operator":null,"country":"US","launch_date":"2024-03-25","launch_site_code":"AFETR","launch_vehicle":null,"mission":null,"orbit_class":"UNKNOWN","rcs_meters":null,"size_class":null,"mass_kg":null,"dimensions":null,"purposes":["comms"],"wikipedia_slug":null,"has_3d_model":false,"image_url":null,"decayed_at":null,"tle_current":{"epoch":"2026-05-25T04:29:33.701568Z","epoch_age_seconds":62164,"freshness":"FRESH","line1":"1 59325U 24057F   26145.18719562 -.00001390  00000+0 -40995-4 0  9994","line2":"2 59325  43.0033 115.4650 0001354 272.3021  87.7675 15.27579989121535","mean_motion":15.27579989,"eccentricity":0.0001354,"inclination_deg":43.0033,"raan_deg":115.465,"arg_perigee_deg":272.3021,"mean_anomaly_deg":87.7675,"bstar":-4.0995e-5,"rev_number":12153,"period_min":94.26674939246,"perigee_km":482.12012437575,"apogee_km":483.97813357947,"semimajor_km":6861.1861289776,"source":"CELESTRAK","updated_at":"2026-05-25T13:38:18.903660Z"}}}